EW6417 Weather Reports


time (UTC)temp
C
wind
direction
speed
KPH
gust
KPH
rain 1hr
cm
rain 24hr
cm
rain mn
cm
humidity
%
barometer
mb
20260906192100 37 106 1.6 8.0 0.00 0.00 0.00 36 1010.0
20260906192003 37 177 3.2 8.0 0.00 0.00 0.00 36 1010.0
20260906191544 37 216 0.0 6.4 0.00 0.00 0.00 36 1009.9
20260906191102 37 215 0.0 8.0 0.00 0.00 0.00 37 1010.1
20260906191002 37 216 0.0 8.0 0.00 0.00 0.00 36 1010.1
20260906190525 37 216 0.0 8.0 0.00 0.00 0.00 37 1010.1
20260906190113 37 222 0.0 9.7 0.00 0.00 0.00 38 1010.2
20260906185520 37 224 0.0 9.7 0.00 0.00 0.00 37 1010.3
20260906185040 38 165 4.8 11.3 0.00 0.00 0.00 37 1010.3
20260906184518 38 158 4.8 12.9 0.00 0.00 0.00 36 1010.4
20260906184039 38 142 3.2 12.9 0.00 0.00 0.00 36 1010.4
20260906183516 38 143 1.6 9.7 0.00 0.00 0.00 37 1010.5
20260906183044 38 54 1.6 12.9 0.00 0.00 0.00 37 1010.6
20260906182510 37 46 3.2 12.9 0.00 0.00 0.00 37 1010.6
20260906182030 37 69 3.2 11.3 0.00 0.00 0.00 38 1010.7
20260906181545 37 49 0.0 8.0 0.00 0.00 0.00 39 1010.8
20260906181022 37 247 0.0 12.9 0.00 0.00 0.00 40 1010.9
20260906180544 37 247 6.4 12.9 0.00 0.00 0.00 40 1011.0
20260906180011 37 249 3.2 8.0 0.00 0.00 0.00 40 1011.2
20260906175544 37 15 1.6 6.4 0.00 0.00 0.00 40 1011.3
20260906175100 37 15 1.6 6.4 0.00 0.00 0.00 41 1011.3
20260906174524 36 29 1.6 6.4 0.00 0.00 0.00 40 1011.4
20260906174055 36 56 0.0 9.7 0.00 0.00 0.00 40 1011.5
20260906173518 36 57 1.6 9.7 0.00 0.00 0.00 40 1011.7
20260906173053 36 37 3.2 9.7 0.00 0.00 0.00 40 1011.8
20260906172513 36 44 4.8 12.9 0.00 0.00 0.00 41 1011.9
20260906172036 36 266 1.6 12.9 0.00 0.00 0.00 41 1012.0
20260906171517 36 254 1.6 9.7 0.00 0.00 0.00 41 1012.0
20260906171035 36 158 3.2 9.7 0.00 0.00 0.00 42 1012.1
20260906170552 35 169 1.6 9.7 0.00 0.00 0.00 43 1012.2
20260906170035 35 206 1.6 11.3 0.00 0.00 0.00 43 1012.2
20260906165549 35 210 8.0 11.3 0.00 0.00 0.00 44 1012.3
20260906165013 35 202 0.0 8.0 0.00 0.00 0.00 45 1012.3
20260906164549 35 220 0.0 9.7 0.00 0.00 0.00 46 1012.3
20260906164012 35 220 6.4 11.3 0.00 0.00 0.00 46 1012.4
20260906163529 34 241 6.4 11.3 0.00 0.00 0.00 46 1012.4
20260906163010 34 253 3.2 8.0 0.00 0.00 0.00 47 1012.4
20260906162530 34 312 1.6 9.7 0.00 0.00 0.00 49 1012.4
20260906162011 33 314 3.2 11.3 0.00 0.00 0.00 49 1012.4
20260906161531 33 243 6.4 11.3 0.00 0.00 0.00 49 1012.4
20260906161048 33 245 3.2 11.3 0.00 0.00 0.00 50 1012.5
20260906160524 33 240 3.2 9.7 0.00 0.00 0.00 51 1012.5
20260906155510 33 289 0.0 8.0 0.00 0.00 0.00 52 1012.6
20260906155042 33 269 3.2 8.0 0.00 0.00 0.00 53 1012.6
20260906154602 32 312 1.6 8.0 0.00 0.00 0.00 53 1012.5
20260906154508 32 313 1.6 8.0 0.00 0.00 0.00 53 1012.5
20260906154039 32 224 0.0 8.0 0.00 0.00 0.00 56 1012.5
20260906153556 32 224 0.0 8.0 0.00 0.00 0.00 54 1012.5
20260906153027 32 224 3.2 9.7 0.00 0.00 0.00 56 1012.4
20260906152557 32 224 3.2 9.7 0.00 0.00 0.00 56 1012.5
20260906152501 32 220 1.6 9.7 0.00 0.00 0.00 57 1012.4
20260906152022 31 213 1.6 9.7 0.00 0.00 0.00 57 1012.4
20260906151554 31 204 3.2 9.7 0.00 0.00 0.00 58 1012.4
20260906151013 31 200 1.6 8.0 0.00 0.00 0.00 57 1012.4
20260906150532 31 192 1.6 8.0 0.00 0.00 0.00 57 1012.4
20260906150008 31 183 3.2 8.0 0.00 0.00 0.00 59 1012.4
20260906145530 31 177 1.6 8.0 0.00 0.00 0.00 60 1012.5
20260906145050 31 178 1.6 8.0 0.00 0.00 0.00 60 1012.5
20260906144533 30 177 1.6 8.0 0.00 0.00 0.00 61 1012.5
20260906144050 30 175 0.0 8.0 0.00 0.00 0.00 61 1012.4
20260906143532 30 175 1.6 8.0 0.00 0.00 0.00 62 1012.4
20260906143100 30 174 0.0 6.4 0.00 0.00 0.00 63 1012.4
20260906143003 30 174 0.0 6.4 0.00 0.00 0.00 63 1012.3
20260906142543 29 174 3.2 8.0 0.00 0.00 0.00 63 1012.4
20260906142023 29 174 1.6 8.0 0.00 0.00 0.00 64 1012.3
20260906141554 29 174 4.8 8.0 0.00 0.00 0.00 65 1012.3
20260906141036 28 174 1.6 4.8 0.00 0.00 0.00 67 1012.3
20260906140554 28 174 1.6 8.0 0.00 0.00 0.00 68 1012.3
20260906140027 28 174 3.2 9.7 0.00 0.00 0.00 68 1012.3
20260906135512 28 174 4.8 9.7 0.00 0.00 0.00 69 1012.2
20260906135049 27 173 4.8 9.7 0.00 0.00 0.00 70 1012.2
20260906134538 27 172 4.8 8.0 0.00 0.00 0.00 70 1012.2
20260906134009 27 172 1.6 6.4 0.00 0.00 0.00 72 1012.2
20260906133543 27 172 1.6 6.4 0.00 0.00 0.00 73 1012.2
20260906133026 26 172 0.0 8.0 0.00 0.00 0.00 74 1012.1
20260906132540 26 172 1.6 8.0 0.00 0.00 0.00 75 1012.1
20260906132058 26 171 1.6 8.0 0.00 0.00 0.00 76 1012.1
20260906131538 25 171 0.0 4.8 0.00 0.00 0.00 77 1012.1
20260906131022 25 171 1.6 4.8 0.00 0.00 0.00 78 1012.1
20260906130555 25 171 3.2 6.4 0.00 0.00 0.00 78 1012.1
20260906130039 25 170 0.0 3.2 0.00 0.00 0.00 78 1012.1
20260906125515 25 170 0.0 6.4 0.00 0.00 0.00 78 1012.0
20260906125053 25 170 1.6 8.0 0.00 0.00 0.00 79 1011.9
20260906124529 25 170 1.6 8.0 0.00 0.00 0.00 79 1011.9
20260906124006 25 189 1.6 6.4 0.00 0.00 0.00 79 1011.8
20260906123547 25 189 0.0 6.4 0.00 0.00 0.00 79 1011.7
20260906123029 25 189 1.6 6.4 0.00 0.00 0.00 79 1011.6
20260906122555 24 191 0.0 1.6 0.00 0.00 0.00 80 1011.6
20260906122042 25 191 0.0 1.6 0.00 0.00 0.00 80 1011.6
20260906121522 25 191 0.0 0.0 0.00 0.00 0.00 80 1011.5
20260906121058 25 191 0.0 0.0 0.00 0.00 0.00 79 1011.4
20260906120533 25 191 0.0 1.6 0.00 0.00 0.00 79 1011.4
20260906120013 25 191 0.0 1.6 0.00 0.00 0.00 80 1011.3
20260906115538 25 191 0.0 0.0 0.00 0.00 0.00 79 1011.3
20260906115019 25 191 0.0 0.0 0.00 0.00 0.00 79 1011.3
20260906114607 25 191 0.0 0.0 0.00 0.00 0.00 79 1011.3
20260906114033 25 191 0.0 1.6 0.00 0.00 0.00 79 1011.2
20260906113509 25 191 0.0 1.6 0.00 0.00 0.00 79 1011.2
20260906113032 25 191 0.0 0.0 0.00 0.00 0.00 79 1011.3
20260906112515 25 191 0.0 0.0 0.00 0.00 0.00 80 1011.2
20260906112051 25 191 0.0 0.0 0.00 0.00 0.00 80 1011.2
20260906111534 25 191 0.0 1.6 0.00 0.00 0.00 79 1011.1
20260906111008 25 191 0.0 1.6 0.00 0.00 0.00 79 1011.1
20260906110546 25 191 0.0 1.6 0.00 0.00 0.00 79 1011.0
20260906110009 25 191 0.0 1.6 0.00 0.00 0.00 79 1010.9
20260906105533 25 191 0.0 1.6 0.00 0.00 0.00 78 1010.9
20260906105016 25 191 0.0 1.6 0.00 0.00 0.00 77 1010.9
20260906104616 25 191 0.0 0.0 0.00 0.00 0.00 76 1010.9
20260906104037 25 191 0.0 0.0 0.00 0.00 0.00 77 1010.9
20260906103517 25 191 0.0 0.0 0.00 0.00 0.00 77 1010.9
20260906103052 25 191 0.0 1.6 0.00 0.00 0.00 77 1010.9
20260906102511 25 191 0.0 1.6 0.00 0.00 0.00 77 1010.9
20260906102035 25 191 0.0 0.0 0.00 0.00 0.00 77 1011.0
20260906101526 25 191 0.0 0.0 0.00 0.00 0.00 78 1010.9
20260906101051 25 191 0.0 1.6 0.00 0.00 0.00 77 1010.9
20260906100513 25 191 0.0 1.6 0.00 0.00 0.00 77 1011.0
20260906100040 25 191 0.0 1.6 0.00 0.00 0.00 77 1011.0
20260906095518 25 191 0.0 1.6 0.00 0.00 0.00 77 1011.0
20260906095054 25 191 0.0 1.6 0.00 0.00 0.00 77 1011.0
20260906094538 25 191 0.0 1.6 0.00 0.00 0.00 77 1011.0
20260906094011 25 191 0.0 1.6 0.00 0.00 0.00 77 1010.8
20260906093546 25 191 0.0 0.0 0.00 0.00 0.00 76 1010.9
20260906093030 26 191 0.0 1.6 0.00 0.00 0.00 76 1010.8
20260906092508 26 191 0.0 0.0 0.00 0.00 0.00 75 1010.8
20260906092044 26 191 0.0 0.0 0.00 0.00 0.00 75 1010.7
20260906091519 26 191 0.0 0.0 0.00 0.00 0.00 76 1010.7
20260906091041 26 191 0.0 0.0 0.00 0.00 0.00 77 1010.8
20260906090521 26 191 0.0 0.0 0.00 0.00 0.00 76 1010.7
20260906090057 26 191 0.0 1.6 0.00 0.00 0.00 76 1010.6
20260906090001 26 191 0.0 1.6 0.00 0.00 0.00 76 1010.6
20260906085539 26 191 0.0 1.6 0.00 0.00 0.00 76 1010.5
20260906085015 26 191 0.0 1.6 0.00 0.00 0.00 76 1010.4
20260906084549 26 191 0.0 1.6 0.00 0.00 0.00 75 1010.4
20260906084033 26 191 0.0 0.0 0.00 0.00 0.00 74 1010.4
20260906083513 26 191 0.0 3.2 0.00 0.00 0.00 75 1010.2
20260906083053 26 191 0.0 3.2 0.00 0.00 0.00 75 1010.3
20260906082534 26 191 0.0 1.6 0.00 0.00 0.00 75 1010.2
20260906082013 26 191 0.0 1.6 0.00 0.00 0.00 74 1010.2
20260906081534 26 191 0.0 3.2 0.00 0.00 0.00 74 1010.2
20260906081051 26 191 0.0 3.2 0.00 0.00 0.00 76 1010.2
20260906080530 26 191 0.0 1.6 0.00 0.00 0.00 74 1010.2
20260906080015 26 191 0.0 3.2 0.00 0.00 0.00 74 1010.2
20260906075539 26 191 0.0 3.2 0.00 0.00 0.00 74 1010.1
20260906075015 27 191 1.6 3.2 0.00 0.00 0.00 74 1010.1
20260906074549 27 191 0.0 0.0 0.00 0.00 0.00 75 1010.1
20260906074030 27 191 0.0 0.0 0.00 0.00 0.00 74 1010.2
20260906073559 27 191 0.0 0.0 0.00 0.00 0.00 74 1010.1
20260906073503 27 191 0.0 0.0 0.00 0.00 0.00 74 1010.1
20260906073037 27 191 0.0 0.0 0.00 0.00 0.00 73 1010.1
20260906072511 27 191 0.0 0.0 0.00 0.00 0.00 73 1010.1
20260906072040 27 191 0.0 0.0 0.00 0.00 0.00 72 1010.1
20260906071525 27 191 0.0 0.0 0.00 0.00 0.00 72 1010.2
20260906071057 27 191 0.0 0.0 0.00 0.00 0.00 72 1010.2
20260906070536 27 191 0.0 0.0 0.00 0.00 0.00 71 1010.2
20260906070017 27 191 0.0 0.0 0.00 0.00 0.00 70 1010.2
20260906065553 27 191 0.0 0.0 0.00 0.00 0.00 70 1010.3
20260906065014 27 191 0.0 0.0 0.00 0.00 0.00 71 1010.3
20260906064539 27 191 0.0 0.0 0.00 0.00 0.00 70 1010.3
20260906064015 27 191 0.0 0.0 0.00 0.00 0.00 71 1010.3
20260906063537 27 191 0.0 0.0 0.00 0.00 0.00 71 1010.2
20260906063057 27 191 0.0 0.0 0.00 0.00 0.00 72 1010.3
20260906062537 27 191 0.0 0.0 0.00 0.00 0.00 71 1010.2
20260906062056 27 191 0.0 0.0 0.00 0.00 0.00 70 1010.2
20260906061530 27 191 0.0 0.0 0.00 0.00 0.00 70 1010.2
20260906061009 27 191 0.0 0.0 0.00 0.00 0.00 70 1010.3
20260906060541 27 191 0.0 0.0 0.00 0.00 0.00 70 1010.4
20260906060016 28 191 0.0 1.6 0.00 0.00 0.00 70 1010.4
20260906055537 28 191 0.0 3.2 0.00 0.00 0.00 69 1010.5
20260906055053 28 191 1.6 3.2 0.00 0.00 0.00 69 1010.5
20260906054535 28 191 0.0 3.2 0.00 0.00 0.00 68 1010.5
20260906054011 28 191 0.0 3.2 0.00 0.00 0.00 68 1010.5
20260906053544 28 191 0.0 3.2 0.00 0.00 0.00 67 1010.6
20260906053025 28 193 0.0 0.0 0.00 0.00 0.00 65 1010.4
20260906052555 28 193 0.0 0.0 0.00 0.00 0.00 65 1010.3
20260906052037 28 193 0.0 0.0 0.00 0.00 0.00 65 1010.3
20260906051551 28 193 0.0 0.0 0.00 0.00 0.00 65 1010.3
20260906051015 28 193 0.0 0.0 0.00 0.00 0.00 64 1010.2
20260906050550 28 193 0.0 0.0 0.00 0.00 0.00 63 1010.2
20260906050023 28 193 0.0 0.0 0.00 0.00 0.00 62 1010.1
20260906045535 28 193 0.0 0.0 0.00 0.00 0.00 61 1010.0
20260906045011 29 193 0.0 0.0 0.00 0.00 0.00 62 1010.0
20260906044549 29 193 0.0 0.0 0.00 0.00 0.00 61 1010.1
20260906044007 29 193 0.0 0.0 0.00 0.00 0.00 61 1010.1
20260906043527 29 193 0.0 0.0 0.00 0.00 0.00 61 1010.1
20260906043005 29 193 0.0 0.0 0.00 0.00 0.00 62 1010.1
20260906042530 29 193 0.0 0.0 0.00 0.00 0.00 60 1010.1
20260906042046 29 193 0.0 0.0 0.00 0.00 0.00 60 1010.1
20260906041524 29 193 0.0 0.0 0.00 0.00 0.00 60 1010.0
20260906041050 30 193 0.0 0.0 0.00 0.00 0.00 60 1010.1
20260906040529 30 193 0.0 0.0 0.00 0.00 0.00 60 1010.1
20260906040011 30 193 0.0 0.0 0.00 0.00 0.00 60 1010.1
20260906035548 30 193 0.0 0.0 0.00 0.00 0.00 61 1010.1
20260906035025 30 193 0.0 0.0 0.00 0.00 0.00 61 1010.1
20260906034511 30 193 0.0 0.0 0.00 0.00 0.00 60 1010.1
20260906034047 30 193 0.0 0.0 0.00 0.00 0.00 60 1010.1
20260906033511 30 193 0.0 0.0 0.00 0.00 0.00 59 1010.2
20260906033052 30 193 0.0 0.0 0.00 0.00 0.00 58 1010.2
20260906032519 30 193 0.0 0.0 0.00 0.00 0.00 57 1010.0
20260906032051 30 193 0.0 0.0 0.00 0.00 0.00 57 1010.0
20260906031536 31 193 0.0 0.0 0.00 0.00 0.00 57 1010.0
20260906031051 31 193 0.0 0.0 0.00 0.00 0.00 56 1010.0
20260906030516 31 193 0.0 0.0 0.00 0.00 0.00 53 1009.9
20260906030046 31 193 0.0 0.0 0.00 0.00 0.00 52 1009.9
20260906025524 31 193 0.0 0.0 0.00 0.00 0.00 51 1009.8
20260906025057 31 193 0.0 0.0 0.00 0.00 0.00 51 1009.9
20260906025005 31 193 0.0 0.0 0.00 0.00 0.00 51 1009.9
20260906024543 31 193 0.0 0.0 0.00 0.00 0.00 51 1009.8
20260906024057 31 193 0.0 0.0 0.00 0.00 0.00 50 1009.8
20260906023533 31 193 0.0 0.0 0.00 0.00 0.00 49 1009.8
20260906023018 32 193 0.0 0.0 0.00 0.00 0.00 49 1009.6
20260906022545 32 193 0.0 0.0 0.00 0.00 0.00 49 1009.6
20260906022057 32 193 0.0 0.0 0.00 0.00 0.00 48 1009.5
20260906022004 32 193 0.0 0.0 0.00 0.00 0.00 48 1009.5
20260906021548 32 193 0.0 0.0 0.00 0.00 0.00 47 1009.4
20260906021005 32 193 0.0 0.0 0.00 0.00 0.00 48 1009.3
20260906020527 32 193 0.0 0.0 0.00 0.00 0.00 48 1009.2
20260906020100 32 193 0.0 0.0 0.00 0.00 0.00 46 1009.2
20260906020005 32 193 0.0 0.0 0.00 0.00 0.00 46 1009.1
20260906015541 33 193 0.0 0.0 0.00 0.00 0.00 46 1009.1
20260906015059 33 193 0.0 0.0 0.00 0.00 0.00 46 1009.1
20260906015001 33 193 0.0 0.0 0.00 0.00 0.00 46 1009.1
20260906014542 33 193 0.0 0.0 0.00 0.00 0.00 46 1009.1
20260906014044 33 193 0.0 0.0 0.00 0.00 0.00 46 1009.0
20260906013532 33 193 0.0 0.0 0.00 0.00 0.00 46 1009.0
20260906013049 33 193 0.0 0.0 0.00 0.00 0.00 45 1008.9
20260906012529 33 193 0.0 0.0 0.00 0.00 0.00 45 1008.9
20260906012003 33 193 0.0 1.6 0.00 0.00 0.00 45 1008.9
20260906011539 33 193 0.0 1.6 0.00 0.00 0.00 44 1008.9
20260906011025 33 193 0.0 1.6 0.00 0.00 0.00 44 1008.9
20260906010553 34 193 0.0 1.6 0.00 0.00 0.00 44 1008.8
20260906010033 34 193 0.0 1.6 0.00 0.00 0.00 43 1008.8
20260906005513 35 193 0.0 3.2 0.00 0.00 0.00 43 1008.8
20260906005039 35 193 0.0 3.2 0.00 0.00 0.00 41 1008.7
20260906004553 35 193 0.0 3.2 0.00 0.00 0.00 40 1008.7
20260906004033 36 193 0.0 3.2 0.00 0.00 0.00 39 1008.8
20260906003551 36 193 0.0 1.6 0.00 0.00 0.00 38 1008.8
20260906003013 37 193 0.0 3.2 0.00 0.00 0.00 37 1008.8
20260906002536 37 193 0.0 3.2 0.00 0.00 0.00 36 1008.8
20260906002019 38 193 0.0 3.2 0.00 0.00 0.00 35 1008.8
20260906001543 38 193 0.0 3.2 0.00 0.00 0.00 35 1008.8
20260906001009 38 193 0.0 0.0 0.00 0.00 0.00 34 1008.8
20260906000541 38 193 0.0 3.2 0.00 0.00 0.00 35 1008.7
20260906000005 38 193 0.0 3.2 0.00 0.00 0.00 34 1008.7
20260905235529 38 193 0.0 3.2 0.00 0.00 0.00 35 1008.6
20260905235051 38 193 0.0 3.2 0.00 0.00 0.00 34 1008.7
20260905234533 38 193 0.0 8.0 0.00 0.00 0.00 35 1008.7
20260905234056 38 193 1.6 8.0 0.00 0.00 0.00 35 1008.6
20260905233513 38 193 1.6 6.4 0.00 0.00 0.00 34 1008.6
20260905233041 38 193 0.0 6.4 0.00 0.00 0.00 36 1008.6
20260905232521 38 193 1.6 8.0 0.00 0.00 0.00 35 1008.6
20260905232039 38 193 3.2 8.0 0.00 0.00 0.00 34 1008.5
20260905231559 38 193 1.6 9.7 0.00 0.00 0.00 35 1008.5
20260905231502 38 193 3.2 9.7 0.00 0.00 0.00 35 1008.6
20260905231042 38 191 4.8 11.3 0.00 0.00 0.00 34 1008.6
20260905230503 38 194 3.2 11.3 0.00 0.00 0.00 34 1008.5
20260905230025 38 149 1.6 8.0 0.00 0.00 0.00 33 1008.5
20260905225505 38 146 1.6 8.0 0.00 0.00 0.00 34 1008.6
20260905225029 38 158 1.6 8.0 0.00 0.00 0.00 35 1008.7
20260905224549 38 229 4.8 8.0 0.00 0.00 0.00 34 1008.6
20260905224013 38 97 1.6 8.0 0.00 0.00 0.00 33 1008.5
20260905223549 38 142 0.0 9.7 0.00 0.00 0.00 34 1008.6
20260905223013 38 207 1.6 9.7 0.00 0.00 0.00 34 1008.6
20260905222549 38 227 1.6 8.0 0.00 0.00 0.00 33 1008.7
20260905222009 38 91 0.0 12.9 0.00 0.00 0.00 33 1008.6
20260905221534 38 173 0.0 12.9 0.00 0.00 0.00 34 1008.7
20260905221052 38 178 3.2 14.5 0.00 0.00 0.00 34 1008.7
20260905220532 39 196 6.4 14.5 0.00 0.00 0.00 34 1008.8
20260905220049 38 192 1.6 8.0 0.00 0.00 0.00 35 1008.8
20260905215513 38 177 0.0 8.0 0.00 0.00 0.00 35 1008.9
20260905215049 38 138 3.2 9.7 0.00 0.00 0.00 35 1008.9
20260905214506 38 51 1.6 9.7 0.00 0.00 0.00 35 1008.9
20260905214028 38 140 0.0 8.0 0.00 0.00 0.00 34 1009.0
20260905213512 38 140 0.0 11.3 0.00 0.00 0.00 35 1009.0
20260905213029 38 55 3.2 11.3 0.00 0.00 0.00 35 1009.0
20260905212547 38 233 0.0 8.0 0.00 0.00 0.00 35 1009.0
20260905212031 38 189 1.6 14.5 0.00 0.00 0.00 35 1009.2
20260905211554 38 186 4.8 14.5 0.00 0.00 0.00 34 1009.2
20260905211011 38 176 1.6 12.9 0.00 0.00 0.00 34 1009.4
20260905210549 38 196 4.8 11.3 0.00 0.00 0.00 34 1009.4
20260905210014 38 137 0.0 9.7 0.00 0.00 0.00 36 1009.5
20260905205551 38 114 1.6 11.3 0.00 0.00 0.00 36 1009.5
20260905205009 38 206 3.2 11.3 0.00 0.00 0.00 37 1009.7
20260905204529 38 145 3.2 14.5 0.00 0.00 0.00 37 1009.8
20260905204004 38 89 8.0 14.5 0.00 0.00 0.00 36 1009.9
20260905203523 37 143 4.8 11.3 0.00 0.00 0.00 37 1009.9
20260905203052 37 255 3.2 14.5 0.00 0.00 0.00 38 1010.0
20260905202518 37 203 8.0 14.5 0.00 0.00 0.00 37 1010.1
20260905202042 37 188 4.8 12.9 0.00 0.00 0.00 37 1010.1
20260905201503 37 126 3.2 6.4 0.00 0.00 0.00 37 1010.2
20260905201024 37 140 1.6 14.5 0.00 0.00 0.00 36 1010.4
20260905200601 37 108 6.4 14.5 0.00 0.00 0.00 37 1010.4
20260905200503 37 78 8.0 14.5 0.00 0.00 0.00 38 1010.5
20260905200025 37 123 1.6 11.3 0.00 0.00 0.00 37 1010.6
20260905195601 37 58 4.8 11.3 0.00 0.00 0.00 38 1010.7
20260905195503 37 57 1.6 12.9 0.00 0.00 0.00 38 1010.7
20260905195026 37 177 0.0 17.7 0.00 0.00 0.00 39 1010.8
20260905194540 37 202 11.3 17.7 0.00 0.00 0.00 39 1010.8
20260905194019 37 196 8.0 16.1 0.00 0.00 0.00 39 1010.8
20260905193538 37 198 6.4 14.5 0.00 0.00 0.00 39 1010.9
20260905193017 37 152 6.4 14.5 0.00 0.00 0.00 39 1010.9
20260905192538 37 54 0.0 8.0 0.00 0.00 0.00 39 1010.9